Jackson, TN

2:12 AM CDT on April 20, 2018 (GMT -0500)
McKellar-Sipes Regional

Weather History for KMKL - March, 2013

Change the Weather History Date:

Wednesday, March 13, 2013

  Actual Average Record
Temperature  
Mean Temperature 37 °F 50 °F  
Max Temperature 47 °F 62 °F 85 °F (1967)
Min Temperature 26 °F 39 °F 20 °F (1969)
Degree Days  
Heating Degree Days 28 15  
Month to date heating degree days 296 219  
Since 1 July heating degree days 2999 3103  
Cooling Degree Days 0 0  
Month to date cooling degree days 0 0  
Year to date cooling degree days 4 1  
Moisture  
Dew Point 24 °F    
Average Humidity 65    
Maximum Humidity 92    
Minimum Humidity 37    
Precipitation  
Precipitation 0.00 in 0.15 in 1.45 in (1978)
Month to date precipitation 2.26 1.87  
Year to date precipitation 14.20 10.11  
Snow  
Snow 0.00 in - - ()
Month to date snowfall T  
Snow Depth 0.00 in    
Sea Level Pressure  
Sea Level Pressure 30.36 in    
Wind  
Wind Speed 9 mph (NW)    
Max Wind Speed 21 mph    
Max Gust Speed 26 mph    
Visibility 10 miles    
Events      
T = Trace of Precipitation, MM = Missing Value Source: NWS Daily Summary

Daily Weather History Graph

Daily Weather History Graph

Search for Another Location

Airport or City:

Astronomy

Mar. 13, 2013 Rise Set
Actual Time 7:08 AM CDT 7:01 PM CDT
Civil Twilight 6:43 AM CDT 7:27 PM CDT
Nautical Twilight 6:13 AM CDT 7:56 PM CDT
Astronomical Twilight 5:44 AM CDT 8:26 PM CDT
Moon 7:53 AM CDT (3/13) 9:11 PM CDT (3/13)
Length of Visible Light 12h 43m
Length of Day
11h 52m
Waxing Crescent, 4% of the Moon is Illuminated
Mar 13
Waxing Crescent
Mar 19
First Quarter
Mar 27
Full
Apr 2
Last Quarter
Apr 10
New

Hourly Weather History & Observations

Time (CDT) Temp. Windchill Dew Point Humidity Pressure Visibility Wind Dir Wind Speed Gust Speed Precip Events Conditions
12:53 AM 44.1 °F 40.8 °F 30.0 °F 58% 30.20 in 10.0 mi WNW 5.8 mph - N/A   Overcast
2:53 AM 39.9 °F 35.1 °F 28.9 °F 65% 30.25 in 10.0 mi NNW 6.9 mph - N/A   Overcast
3:53 AM 39.0 °F 33.4 °F 27.0 °F 62% 30.25 in 10.0 mi WNW 8.1 mph - N/A   Clear
4:53 AM 37.9 °F 30.9 °F 25.0 °F 60% 30.26 in 10.0 mi NW 10.4 mph - N/A   Clear
5:53 AM 36.0 °F 30.3 °F 25.0 °F 64% 30.28 in 10.0 mi WNW 6.9 mph - N/A   Clear
6:53 AM 35.1 °F 26.9 °F 25.0 °F 67% 30.30 in 10.0 mi NW 11.5 mph - N/A   Clear
7:53 AM 35.1 °F 27.9 °F 24.1 °F 64% 30.33 in 10.0 mi NW 9.2 mph - N/A   Clear
8:53 AM 37.0 °F 27.7 °F 24.1 °F 59% 30.36 in 10.0 mi NW 16.1 mph - N/A   Clear
9:53 AM 39.0 °F 29.9 °F 23.0 °F 53% 30.38 in 10.0 mi NW 17.3 mph 24.2 mph N/A   Clear
10:53 AM 41.0 °F 34.3 °F 24.1 °F 51% 30.40 in 10.0 mi NNW 11.5 mph 21.9 mph N/A   Clear
11:53 AM 43.0 °F 36.0 °F 25.0 °F 49% 30.40 in 10.0 mi NNW 13.8 mph 23.0 mph N/A   Clear
12:53 PM 44.1 °F 37.1 °F 24.1 °F 45% 30.39 in 10.0 mi WNW 15.0 mph 20.7 mph N/A   Clear
1:53 PM 46.0 °F 39.3 °F 25.0 °F 44% 30.38 in 10.0 mi NW 16.1 mph 21.9 mph N/A   Clear
2:53 PM 46.9 °F - 24.1 °F 41% 30.38 in 10.0 mi NW 18.4 mph 25.3 mph N/A   Clear
3:53 PM 46.0 °F 39.0 °F 21.9 °F 39% 30.39 in 10.0 mi NNW 17.3 mph 24.2 mph N/A   Clear
4:53 PM 46.0 °F 40.2 °F 21.9 °F 39% 30.39 in 10.0 mi NNW 12.7 mph - N/A   Clear
5:53 PM 45.0 °F 38.9 °F 21.0 °F 39% 30.39 in 10.0 mi NNW 12.7 mph - N/A   Clear
6:53 PM 41.0 °F 36.4 °F 21.9 °F 47% 30.40 in 10.0 mi NNW 6.9 mph - N/A   Clear
7:53 PM 37.9 °F - 23.0 °F 55% 30.40 in 10.0 mi Calm Calm - N/A   Clear
8:53 PM 34.0 °F - 21.9 °F 61% 30.40 in 10.0 mi Calm Calm - N/A   Clear
9:53 PM 30.9 °F - 24.1 °F 76% 30.41 in 10.0 mi Calm Calm - N/A   Clear
10:53 PM 28.0 °F - 23.0 °F 81% 30.42 in 10.0 mi Calm Calm - N/A   Clear
11:53 PM 27.0 °F 23.0 °F 24.1 °F 89% 30.43 in 10.0 mi SSW 3.5 mph - N/A   Clear